Probability
0 0 0 0 0 0 0 0 0 0 1 2 3 4 5 8 12 15 20 24 26 29 32 31 26 20 17 15 13 12 11 12 14 15 16 18 21 22 21 20 22 26 27 27
0 0 0 0 0 0 0 0 0 0 1 4 5 6 7 10 12 16 19 24 26 28 30 30 26 21 19 18 18 17 14 13 13 15 15 15 18 20 19 18 21 24 26 26
0 0 0 0 0 0 0 1 1 1 2 4 7 9 10 11 13 16 19 22 25 27 29 29 25 22 22 23 24 22 18 15 14 15 15 14 16 20 21 20 21 25 28 29
0 0 0 0 0 0 1 2 3 3 3 4 7 9 10 11 14 17 19 21 24 26 28 27 24 22 24 26 26 23 20 17 16 16 17 17 20 24 26 26 26 28 31 32
0 0 0 0 0 0 1 3 5 5 5 7 8 7 8 11 15 19 20 21 21 23 25 25 24 23 24 25 24 23 22 21 20 20 21 23 26 29 30 29 29 30 31 31
0 0 0 0 0 0 1 3 5 6 8 11 12 12 13 16 19 20 20 20 20 21 23 24 24 23 22 22 23 23 24 26 28 28 28 27 28 30 31 31 30 29 28 28
0 0 0 0 0 0 2 5 8 10 13 17 19 21 24 25 24 22 20 20 22 24 25 24 23 22 21 20 22 23 26 31 35 35 32 30 28 29 30 30 28 26 25 24
1 0 1 2 1 2 5 9 11 12 15 20 24 25 27 29 27 24 22 22 24 27 27 25 24 24 23 22 23 25 28 34 38 36 33 30 28 26 26 25 24 22 20 19
2 2 2 3 3 5 7 10 12 13 15 21 25 25 24 26 25 23 23 24 26 28 29 28 27 27 27 26 26 26 29 34 36 33 30 28 25 22 19 18 17 15 14 14
4 4 4 3 4 5 7 9 12 14 15 20 23 22 22 23 24 24 25 26 27 29 31 30 29 28 28 29 28 27 28 31 31 27 23 22 21 18 15 13 12 12 12 12
5 5 4 3 4 5 6 8 12 14 16 19 21 21 22 25 26 27 28 28 27 28 31 32 31 29 28 28 28 27 27 27 25 19 16 16 16 15 12 11 10 9 9 10
4 3 3 3 4 5 6 8 12 15 16 18 20 21 23 25 26 27 27 26 24 26 30 31 30 27 26 27 27 27 27 24 18 12 10 10 10 10 8 6 5 4 4 5
1 1 1 2 3 4 5 8 11 13 15 16 17 19 22 22 22 24 25 22 21 24 28 29 27 24 23 24 25 25 23 20 14 10 9 8 8 7 6 4 3 2 1 1
0 0 1 1 3 4 5 6 7 9 11 14 15 16 19 20 22 24 24 21 19 21 23 24 24 22 20 19 21 21 18 14 12 11 9 8 7 7 7 6 5 5 3 2
1 1 1 1 1 3 5 4 5 7 10 13 13 13 16 19 22 24 22 20 18 17 17 18 20 20 17 17 18 18 14 10 9 10 9 8 7 7 7 6 7 6 5 5
0 0 0 0 0 1 3 3 5 7 10 12 11 10 12 16 20 20 18 17 16 15 15 15 15 15 15 15 15 15 12 8 7 8 9 9 7 6 6 6 6 6 6 6
0 0 0 0 0 0 1 3 6 8 10 10 10 9 10 13 16 16 14 13 13 13 13 13 12 10 10 11 11 11 9 7 5 6 8 9 8 7 6 6 6 6 5 5
0 0 0 0 0 0 0 2 6 9 10 10 10 10 12 13 14 14 13 11 10 10 10 10 8 6 6 7 8 7 6 6 5 6 8 9 8 7 6 6 5 5 4 4
0 0 0 0 0 1 2 4 7 10 11 10 11 12 13 12 11 11 10 8 7 7 6 5 4 3 3 4 6 5 5 5 6 8 9 7 6 5 4 4 3 3 3 3
0 0 1 1 1 3 5 6 8 9 10 10 11 12 12 10 9 8 7 6 7 6 4 2 1 1 2 4 4 5 5 6 6 7 7 4 2 2 1 1 2 2 2 2
1 1 2 3 4 5 6 7 7 8 8 9 10 11 11 9 7 6 6 7 7 5 2 0 0 1 2 3 4 5 5 5 4 3 2 1 0 0 0 0 1 1 1 1
2 2 2 3 5 6 6 6 6 7 7 8 9 10 10 9 7 7 7 7 5 3 1 0 0 0 1 1 2 3 3 2 1 1 0 0 0 0 0 0 0 0 0 0
3 3 3 3 3 4 6 6 6 6 6 6 7 9 9 9 8 8 8 5 2 0 0 0 0 0 0 0 1 1 1 0 0 0 0 0 0 0 0 0 0 0 0 0
4 4 4 2 2 3 5 6 6 5 4 4 6 7 9 9 9 7 6 3 0 0 0 0 0 0 0 0 0 0 0 0 0 0 0 0 0 0 0 0 0 0 0 0
4 3 3 1 1 2 3 4 4 3 3 4 6 6 7 8 8 5 3 1 0 0 0 0 0 0 0 0 0 0 0 0 0 0 0 0 0 0 0 0 0 0 0 0
1 1 1 0 1 2 3 3 3 2 2 4 5 5 5 5 5 4 2 1 0 0 0 0 0 0 0 0 0 0 0 0 0 0 0 0 0 0 0 0 0 0 0 0
0 0 0 0 1 2 3 3 2 1 1 2 3 4 4 4 4 4 3 1 0 0 0 0 0 0 0 0 0 0 0 0 0 0 0 0 0 0 0 0 0 0 0 0
Wind_Speed
8 6 8 9 9 9 10 10 10 7 6 4 3 2 1 1 0 1 2 3 4 5 5 5 4 4 4 4 4 4 4 5 4 4 4 3 4 4 4 4 4 4 4 4
10 9 10 11 11 11 10 10 9 8 6 2 2 1 1 1 1 1 1 2 3 4 5 5 5 4 4 4 4 5 5 5 4 4 4 4 4 4 4 4 3 3 4 4
9 7 11 13 10 10 9 8 9 9 5 2 3 2 2 2 2 1 1 2 3 4 4 4 5 4 4 4 4 5 5 4 4 4 4 4 4 4 4 4 4 4 4 4
7 7 13 4 2 6 7 7 7 6 4 4 4 3 2 2 2 2 2 2 2 3 3 4 4 4 4 4 5 5 5 4 4 4 4 4 4 4 4 3 3 3 3 3
8 11 10 6 4 5 7 6 4 5 4 4 3 5 3 1 1 1 1 1 2 3 3 3 3 4 4 4 5 5 5 5 4 4 4 4 5 5 4 4 4 4 3 3
9 11 11 2 2 3 7 8 2 4 4 4 4 6 1 2 2 1 1 1 1 2 3 3 2 3 4 4 5 5 4 4 4 4 4 5 5 5 4 4 4 3 3 3
12 11 6 3 1 4 9 1 2 2 3 4 4 4 3 2 2 1 1 1 1 2 3 2 2 3 4 4 5 4 4 4 4 4 5 4 4 4 4 4 3 3 3 3
9 11 5 4 1 3 3 4 3 3 4 4 4 3 3 2 2 2 1 1 2 2 2 2 3 3 4 4 4 3 4 4 4 4 4 3 4 4 4 4 4 4 4 4
5 2 4 2 2 3 4 4 4 4 4 4 4 4 3 2 2 2 2 2 2 2 2 2 3 3 3 3 3 4 4 4 3 3 3 3 4 4 4 4 4 4 3 3
5 4 2 2 2 3 4 4 5 5 5 5 4 4 4 3 2 2 2 2 2 2 2 2 2 2 2 2 3 4 4 3 3 3 3 3 3 3 3 3 3 3 3 3
7 5 5 4 3 4 5 5 5 5 5 5 5 4 4 3 3 2 2 2 2 2 2 2 1 1 2 2 3 3 3 3 3 3 3 2 2 1 2 1 2 3 3 3
6 4 6 5 4 5 5 5 5 5 5 5 5 5 4 3 3 3 3 2 2 2 2 2 1 1 1 2 2 3 3 3 3 3 2 3 2 1 4 3 4 3 2 3
7 8 8 7 6 6 6 5 5 5 5 5 4 4 4 3 2 2 3 3 2 3 2 2 2 2 1 1 2 2 2 2 2 2 2 2 2 2 1 2 2 2 2 2
7 7 7 6 6 5 5 5 5 5 5 4 4 4 3 2 2 2 3 3 2 2 2 2 2 2 1 2 2 2 3 2 2 2 2 2 2 2 2 2 1 1 1 2
7 7 7 6 6 5 5 4 4 4 4 4 3 4 3 3 3 3 3 3 2 2 2 1 1 0 0 1 2 2 2 2 2 2 2 2 2 2 2 2 1 1 1 2
7 6 6 5 5 5 5 5 5 4 4 3 3 4 4 3 3 3 2 2 2 1 2 1 1 0 0 1 2 2 2 1 2 2 2 2 3 2 2 2 2 2 1 1
7 6 6 6 6 5 4 5 5 4 4 3 3 3 3 3 2 2 2 2 2 2 1 1 1 1 1 1 2 2 1 2 3 3 2 2 2 2 2 2 1 1 1 0
7 6 6 6 5 5 4 4 4 4 4 4 4 3 3 2 2 2 2 2 2 1 1 1 1 1 1 1 1 1 1 2 2 2 2 2 2 2 2 2 2 2 2 2
5 5 5 4 4 4 4 3 3 3 3 4 3 3 2 2 2 2 2 2 2 2 1 1 0 1 1 1 2 2 2 1 2 2 2 2 3 2 2 2 2 2 2 2
3 3 3 3 3 2 2 2 2 2 3 3 3 2 2 2 1 1 1 2 2 1 1 1 1 1 1 1 2 2 2 2 2 2 2 2 2 2 2 2 2 2 2 2
3 3 3 2 1 1 2 2 2 2 2 3 2 2 1 1 1 1 2 1 0 1 1 1 2 1 1 1 3 2 2 2 2 1 1 2 2 2 2 2 2 1 2 2
3 3 2 1 1 1 1 2 2 2 2 3 2 1 1 1 1 1 1 1 1 1 1 2 1 1 1 1 2 1 1 1 1 1 1 1 2 2 2 2 2 1 1 1
2 2 2 1 1 2 2 2 2 2 2 2 2 1 1 1 2 1 1 1 1 1 1 0 3 3 1 2 1 1 1 1 1 1 1 2 1 1 1 2 2 2 1 1
2 2 2 1 1 2 2 2 2 1 1 2 1 1 1 1 1 0 1 3 2 1 1 3 4 1 2 1 1 1 1 0 0 1 1 1 1 1 1 1 1 1 1 2
2 2 2 2 3 2 2 2 2 2 1 0 0 0 0 0 0 1 2 2 2 1 1 4 3 1 1 1 1 0 0 0 0 1 1 1 1 1 1 1 1 2 2 2
3 2 1 2 2 2 2 2 1 1 1 1 1 1 1 0 1 2 1 2 2 1 1 2 2 2 1 1 0 0 1 1 1 1 1 1 1 1 1 1 2 2 2 2
3 2 2 2 2 2 2 2 1 1 1 1 1 1 1 1 1 1 1 1 1 1 1 1 1 1 1 0 0 1 1 1 1 1 1 1 1 1 1 2 2 2 2 2
Wind_Direction
260 264 253 249 246 238 244 262 270 270 268 275 293 315 344 344 80 109 127 157 169 169 165 171 173 179 185 188 190 193 192 198 199 200 199 204 208 212 214 216 219 221 232 238
242 239 249 251 244 242 242 249 253 259 263 273 268 265 242 235 201 151 152 163 170 174 173 175 180 189 184 188 191 191 198 206 203 201 200 203 206 209 208 211 220 223 227 236
245 233 247 242 235 236 235 242 251 255 266 255 259 277 279 259 239 233 226 196 185 183 182 181 184 187 189 187 191 192 199 206 204 205 204 206 209 204 210 213 214 219 224 228
250 235 243 243 219 241 242 245 253 259 257 253 268 270 278 289 277 256 250 241 206 198 190 188 184 178 185 186 190 195 201 204 203 203 201 198 201 204 208 212 215 215 218 222
246 240 244 221 207 232 240 241 247 253 247 253 273 248 199 136 297 292 294 282 222 201 191 181 179 176 183 188 191 198 202 205 204 203 203 204 206 206 207 209 216 220 216 220
239 250 251 203 120 243 245 230 210 249 255 264 265 254 190 42 340 314 318 319 234 201 190 182 184 187 196 201 201 204 204 208 208 206 208 213 212 211 208 207 213 223 224 228
240 247 248 61 60 220 235 243 41 294 282 269 262 295 332 333 318 304 305 280 227 207 207 199 197 199 207 211 217 215 210 212 213 211 212 210 209 209 210 213 213 225 234 237
237 245 232 76 189 262 355 8 336 317 305 296 296 289 284 289 293 293 294 262 232 218 217 209 204 204 210 216 222 216 210 213 215 217 224 200 194 204 211 217 218 217 222 236
257 281 62 58 20 9 346 331 323 314 306 297 287 283 280 277 287 294 293 270 241 234 217 209 213 217 217 210 206 206 205 208 212 210 210 205 202 206 208 212 231 232 230 236
255 229 256 281 294 317 323 321 317 311 303 299 292 288 288 289 286 285 293 280 252 245 246 232 220 224 227 204 200 202 201 199 202 202 201 200 214 223 230 233 239 246 251 250
247 257 262 243 289 308 311 308 308 310 302 301 293 290 289 285 279 276 277 279 262 252 256 249 243 233 226 193 194 198 192 198 209 210 199 195 209 296 272 304 326 279 271 266
266 270 272 272 285 295 294 297 303 302 298 296 295 296 292 282 277 279 276 274 265 264 272 271 256 246 232 191 192 199 194 200 214 217 202 205 189 150 53 44 53 37 340 308
283 289 289 283 281 282 279 286 298 298 291 289 298 296 289 290 285 279 275 270 270 275 281 278 261 253 239 190 188 208 216 211 218 217 202 211 211 201 178 122 86 61 48 48
271 269 265 267 277 280 276 276 280 280 282 288 295 297 287 287 296 283 278 278 279 278 279 272 262 251 225 190 185 195 206 186 205 204 210 211 215 222 219 214 194 167 133 140
265 264 266 272 273 273 267 259 260 266 277 288 292 293 284 282 288 287 286 287 284 273 269 253 244 274 250 198 198 207 215 204 209 210 209 213 223 228 221 214 216 207 186 150
266 262 259 262 265 267 264 259 258 266 276 287 296 301 296 287 282 281 288 285 280 285 289 272 266 320 286 217 206 206 202 158 220 228 219 211 221 228 226 225 224 225 226 220
257 257 260 263 262 258 259 262 261 266 276 285 292 293 283 274 275 284 287 286 297 296 288 282 329 9 317 239 230 225 204 160 181 220 225 228 233 236 234 236 240 236 234 150
259 262 264 265 266 264 261 262 266 269 279 293 293 286 279 274 281 285 282 276 271 282 308 344 19 1 269 258 257 259 208 189 214 220 212 224 239 242 238 231 233 239 234 174
263 265 265 264 263 258 256 256 266 277 288 286 279 278 273 268 265 268 272 267 263 264 300 345 88 227 236 262 271 238 221 208 215 215 211 195 228 235 230 232 236 239 250 227
266 267 269 263 255 255 257 259 264 272 279 279 277 273 268 271 258 243 255 261 282 314 317 337 255 238 230 220 256 233 214 213 214 210 216 220 227 233 240 240 232 228 237 235
285 285 273 252 236 253 256 256 259 271 282 284 276 272 266 258 244 249 259 266 339 1 289 217 234 243 228 223 239 229 203 208 215 214 220 225 234 238 239 234 227 226 229 236
299 292 281 260 241 247 252 244 244 258 268 275 269 265 261 252 244 247 272 304 8 62 238 224 227 46 3 275 232 218 201 195 217 227 240 239 234 231 238 244 238 228 227 234
294 282 273 270 257 249 243 237 240 250 259 264 268 267 265 281 284 276 269 38 53 42 264 68 60 63 314 238 201 189 175 186 219 235 230 237 247 250 249 250 256 248 235 232
277 256 253 253 242 231 231 239 250 249 249 252 256 275 270 258 267 313 60 91 85 93 55 77 93 98 256 217 146 154 148 162 201 244 253 252 267 273 274 274 281 285 274 259
264 245 234 237 234 230 230 229 214 201 217 227 95 100 243 101 60 57 81 105 112 152 108 111 133 180 236 89 107 125 183 184 315 294 252 242 261 270 280 297 311 307 298 283
253 250 250 260 269 265 253 239 229 207 176 147 114 71 33 67 118 121 131 139 129 123 120 125 137 176 187 135 154 241 260 161 174 228 243 253 258 265 284 304 296 291 291 289
241 240 242 248 246 250 248 230 217 190 185 182 146 151 166 162 144 132 136 133 127 127 119 135 155 201 213 197 238 263 263 248 238 245 235 235 246 253 254 262 270 270 277 280